Terminal Aerodrome Forecast
Issued by NWS Nashville, TN

Home | Current Version | Previous Version | Text Only | Print | Product List | Glossary On
Versions: 1 2 3 4 5 6 7 8 9 10 11 12 13 14 15 16 17 18 19 20 21
000
FTUS44 KOHX 011031 AAC
TAFCSV
TAF AMD
KCSV 011031Z 0111/0206 VRB04KT P6SM SKC
     FM011500 20007KT P6SM BKN030
     FM020200 24005KT P6SM VCSH SCT035 BKN060=

USA.gov is the U.S. government's official web portal to all federal, state and local government web resources and services.